TimeCDT,TemperatureF,Dew PointF,Humidity,Sea Level PressureIn,VisibilityMPH,Wind Direction,Wind SpeedMPH,Gust SpeedMPH,PrecipitationIn,Events,Conditions,WindDirDegrees,DateUTC
12:53 AM,42.1,34.0,73,30.12,10.0,East,3.5,-,N/A,,Clear,80,2013-10-23 05:53:00
1:53 AM,42.1,35.1,76,30.13,10.0,ENE,4.6,-,N/A,,Clear,70,2013-10-23 06:53:00
2:53 AM,42.1,35.1,76,30.12,10.0,ESE,3.5,-,N/A,,Clear,110,2013-10-23 07:53:00
3:53 AM,41.0,35.1,79,30.10,10.0,South,5.8,-,N/A,,Clear,180,2013-10-23 08:53:00
4:53 AM,39.0,34.0,82,30.09,10.0,Calm,Calm,-,N/A,,Clear,0,2013-10-23 09:53:00
5:53 AM,37.9,33.1,83,30.10,10.0,Calm,Calm,-,N/A,,Clear,0,2013-10-23 10:53:00
6:53 AM,34.0,30.9,89,30.11,10.0,Calm,Calm,-,N/A,,Clear,0,2013-10-23 11:53:00
7:53 AM,35.1,32.0,89,30.10,10.0,Calm,Calm,-,N/A,,Clear,0,2013-10-23 12:53:00
8:53 AM,37.0,34.0,89,30.09,10.0,South,6.9,-,N/A,,Clear,190,2013-10-23 13:53:00
9:53 AM,43.0,36.0,76,30.11,10.0,West,6.9,-,N/A,,Clear,260,2013-10-23 14:53:00
10:53 AM,50.0,37.0,61,30.10,10.0,West,8.1,-,N/A,,Clear,280,2013-10-23 15:53:00
11:53 AM,59.0,39.9,49,30.07,10.0,WNW,8.1,-,N/A,,Clear,290,2013-10-23 16:53:00
12:53 PM,68.0,37.9,33,30.06,10.0,NNW,13.8,28.8,N/A,,Clear,330,2013-10-23 17:53:00
1:53 PM,69.1,36.0,30,30.04,10.0,NW,16.1,25.3,N/A,,Clear,320,2013-10-23 18:53:00
2:53 PM,70.0,36.0,29,30.03,10.0,NNW,19.6,24.2,N/A,,Clear,340,2013-10-23 19:53:00
3:53 PM,70.0,35.1,28,30.04,10.0,NNW,20.7,27.6,N/A,,Clear,340,2013-10-23 20:53:00
4:53 PM,68.0,36.0,31,30.06,10.0,North,19.6,27.6,N/A,,Clear,350,2013-10-23 21:53:00
5:53 PM,64.9,36.0,34,30.08,10.0,North,13.8,-,N/A,,Clear,10,2013-10-23 22:53:00
6:53 PM,57.9,36.0,44,30.12,10.0,NNE,12.7,-,N/A,,Clear,30,2013-10-23 23:53:00
7:53 PM,52.0,35.1,53,30.16,10.0,NNE,11.5,-,N/A,,Clear,30,2013-10-24 00:53:00
8:53 PM,50.0,35.1,57,30.19,10.0,East,4.6,-,N/A,,Clear,90,2013-10-24 01:53:00
9:53 PM,46.9,35.1,63,30.22,10.0,ENE,6.9,-,N/A,,Clear,60,2013-10-24 02:53:00
10:53 PM,44.1,35.1,71,30.23,10.0,NE,9.2,-,N/A,,Clear,50,2013-10-24 03:53:00
11:53 PM,41.0,34.0,76,30.26,10.0,Calm,Calm,-,N/A,,Clear,0,2013-10-24 04:53:00